THOR ABLESTAR DEB, 552

Orbit data source: Space-Track

THOR ABLESTAR DEB, 552 is space debris in LEO originally from a launch on Thu, 29 Jun 1961 UTC launched from the Air Force Eastern Test Range (AFETR). Debris objects in space refer to the collection of defunct objects orbiting the Earth. Examples of debris include non-operational satellites, rocket bodies, and fragments generated from explosions, collisions, or faulty payload assembly.

Loading next visibility...
Identifier
552, 1961-015GM
Orbit
LEO
Country
Flag of USUS
Related business
Manufacturer
Unknown
Mission
Spacecraft
Bus & Motor
Unknown
Mass
Unknown
Launch date (UTC)
1961-06-29 (65 years ago)
Launch vehicle
Unknown
Launch site
Air Force Eastern Test Range (AFETR)
Object type
Payload
Rocket body
Debris
Shape & HBR
Unknown shape, 0.1 m
Radar Cross Section
Small (<0.1 m²)

Expand to show TLE details & history
Last TLE update: 20 hours ago

TLE from 20 hours ago
0 THOR ABLESTAR DEB
1 00552U 61015GM  26033.32931908  .00001589  00000-0  11008-2 0  9999
2 00552  67.7373  12.6441 0092790 115.1737 245.9012 13.99236641237837
Epoch: 2026-02-02T07:54Z
TLE epoch observation values (Epoch: 2026-02-02T07:54:13.168Z)
Latitude
-0.00004°
Longitude
121.56305°
Altitude
926.679 km
Speed
7.375 km/s
True Right ascension
00h 50m 34s
True Declination
0° 00' 00"
Sunlit
Object was in daylight at epoch
Visualization orbit readout
Latitude
Unknown
Longitude
Unknown
Altitude
Unknown
Speed
Unknown
Apparent Right ascension
Unknown
Apparent Declination
Unknown
Sunlit
N/A
Visualization observer readout
Local Sidereal Time
05:46:32
Azimuth
Unknown
Elevation
Unknown
Doppler factor
Unknown
Orbital elements
Apogee altitude
962.205 km
Perigee altitude
827.236 km
Semi-major axis
7,272.858 km
Eccentricity
0.00928
Inclination
67.7373°
RAAN
12.6441°
Arg. of periapsis
115.1737°
True anomaly
244.9352°
Mean anomaly
245.9012°
Eccentric anomaly
245.41774°
Mean motion
3.49934 °/min
Orbital period
102.88 mins
BSTAR
0.0011008
Loading maneuver chart data...
Computing Atmospheric mass density...

Documentation

Showing up to 5 results
|